This demonstration page uses our WeatherBlox Daily Observations layout. Learn more.

Left ArrowRight Arrow

Hourly Observations for October 7, 2022

Temp ( °F °C ) Dew Point ( °F °C ) Humidity (%) Winds ( mph kmh ) Pressure ( in mb ) Visibility ( mi km ) Precip ( " mm )
12:53 am 00:53 Clear 36 2.2 33 0.6 89 89 ESE 3 6 30.49 1033 10 16 0.00 0.00
1:53 am 01:53 Clear 34 1.1 32 0 92 92 Calm 30.49 1033 10 16 0.00 0.00
2:53 am 02:53 Clear 33 0.6 31 -0.6 92 92 Calm 30.50 1033 10 16 0.00 0.00
3:53 am 03:53 Clear 31 -0.6 30 -1.1 96 96 Calm 30.51 1033 10 16 0.00 0.00
4:53 am 04:53 Clear 30 -1.1 28 -2.2 92 92 Calm 30.50 1033 10 16 0.00 0.00
5:53 am 05:53 Clear 30 -1.1 29 -1.7 96 96 Calm 30.50 1033 10 16 0.00 0.00
6:53 am 06:53 Clear 30 -1.1 28 -2.2 92 92 Calm 30.52 1033 10 16 0.00 0.00
7:53 am 07:53 Sunny 28 -2.2 27 -2.8 96 96 SW 3 6 30.53 1034 10 16 0.00 0.00
8:53 am 08:53 Sunny 34 1.1 31 -0.6 88 88 Calm 30.53 1034 10 16 0.00 0.00
9:53 am 09:53 Sunny 40 4.4 33 0.6 76 76 Calm 30.52 1034 10 16 0.00 0.00
10:53 am 10:53 Sunny 46 7.8 36 2.2 68 68 WSW 5 7 30.51 1033 10 16 0.00 0.00
11:53 am 11:53 Sunny 53 11.7 38 3.3 56 56 Calm 30.49 1033 10 16 0.00 0.00
12:53 pm 12:53 Sunny 56 13.3 39 3.9 53 53 Calm 30.47 1032 10 16 0.00 0.00
1:53 pm 13:53 Sunny 61 16.1 38 3.3 42 42 VRB 5 7 30.43 1031 10 16 0.00 0.00
2:53 pm 14:53 Sunny 63 17.2 35 1.7 35 35 WSW 6 9 30.40 1030 10 16 0.00 0.00
3:53 pm 15:53 Sunny 65 18.3 37 2.8 36 36 undefined N/A 30.39 1029 10 16 0.00 0.00
4:53 pm 16:53 Sunny 65 18.3 38 3.3 37 37 W 3 6 30.37 1029 10 16 0.00 0.00
5:53 pm 17:53 Sunny 65 18.3 38 3.3 37 37 W 6 9 30.36 1028 10 16 0.00 0.00
6:53 pm 18:53 Clear 60 15.6 38 3.3 44 44 WSW 3 6 30.37 1028 10 16 0.00 0.00
7:53 pm 19:53 Clear 48 8.9 34 1.1 58 58 S 7 11 30.40 1029 10 16 0.00 0.00
8:53 pm 20:53 Clear 49 9.4 36 2.2 61 61 S 10 17 30.38 1029 10 16 0.00 0.00
9:53 pm 21:53 Clear 46 7.8 36 2.2 68 68 SW 5 7 30.38 1029 10 16 0.00 0.00
10:53 pm 22:53 Clear 43 6.1 34 1.1 70 70 W 6 9 30.37 1029 10 16 0.00 0.00
11:53 pm 23:53 Clear 43 6.1 36 2.2 76 76 SW 6 9 30.36 1028 10 16 0.00 0.00

Powered by AerisWeather